User: anonymous   Login
Location: Unspecified
(0.0000°N, 0.0000°E)
Time: 09:37:14
(UTC+00:00)
Language:

Kosmos-2172 - Orbit

View from above orbital plane
View from above orbital plane
View from above satellite
View from above satellite

Ground track
Ground track

The orbit data is extracted from the following two-line orbital elements,

1 21796U 91081A   17327.55167667  .00000041  00000-0  26227-4 0  9995
2 21796  82.9538 325.6959 0050704  78.4502  38.9606 13.75473508304702
Epoch (UTC): 23 November 2017 13:14:24
Eccentricity: 0.0050704
inclination: 82.9538°
perigee height: 942 km
apogee height: 1017 km
right ascension of ascending node: 325.6959°
argument of perigee: 78.4502°
revolutions per day: 13.75473508
mean anomaly at epoch: 38.9606°
orbit number at epoch: 30470

The dashed part of the orbit path shows where the satellite is in the earth's shadow,  

DLR